MHSAA State Championships LP 2017

Brooklyn, MI

MHSAA State Championships LP 2017 vs MHSAA State Championships LP 2015

Aggregate Data Points
Difference This Meet That Meet
Overall Athletes +26 1968 1942
Overall Average +4.72 19:21.32 19:16.60
1st-10th Place +0.10 15:21.80 15:21.70
1st-25th Place -0.28 15:32.75 15:33.03
1st-50th Place -1.50 15:42.08 15:43.57
1st-100th Place +0.42 15:56.82 15:56.41
Common Athletes -- -- 453
Ran Faster 198 326 128
Ran Season Best -28 103 131
Average Time -21.28 18:47.89 19:09.17
Median Time -21.00 18:44.10 19:05.10
Middle 80% Times -23.69 18:40.97 19:04.67
Top 10% Times -29.88 15:52.75 16:22.63
Top 25% Times -30.36 16:22.41 16:52.77
Top 50% Times -31.14 17:07.14 17:38.28
Bottom 50% Times -11.33 20:23.66 20:35.00
Bottom 25% Times -6.09 21:34.21 21:40.29
Bottom 10% Times +7.44 22:45.28 22:37.84
Average Difference -21.40 -- --
Median Difference +2.40 -- --
Middle 80% Difference -24.33 -- --
Top 10% Difference -23.41 -- --
Top 50% Difference -29.32 -- --
Top 25% Difference -24.46 -- --
Top 50% Difference -29.32 -- --
Bottom 50% Difference -13.49 -- --
Bottom 25% Difference -8.82 -- --
Bottom 10% Difference +4.08 -- --

Performances of Common Athletes
Athlete Team Difference This Meet That Meet
Shuaib Aljabaly Coldwater -45.00 15:12.20 15:57.20
Cole Johnson Rockford +3.20 15:18.20 15:15.00
Paul Mckinley Okemos -49.50 15:23.70 16:13.20
Alex Comerford Otsego -39.80 15:24.70 16:04.50
Gabriel Mudel Novi -26.90 15:26.70 15:53.60
Drew Wenger White Lake Lakeland -14.90 15:27.00 15:41.90
George Nummer Birmingham Seaholm -1:14.20 15:35.70 16:49.90
Ben Schmidt Fremont -33.70 15:38.10 16:11.80
Anthony Giannobile Ann Arbor Skyline -14.70 15:40.00 15:54.70
Abdi Ahmed Grand Rapids Forest Hills Northern -1:04.60 15:41.40 16:46.00
Brenden Allen Romeo -1:14.20 15:42.90 16:57.10
Nick Trevisan Farmington -39.90 15:43.20 16:23.10
Ethan Byrnes Plymouth -32.60 15:43.80 16:16.40
Yami Albrecht Caro -19.10 15:44.70 16:03.80
Nicholson Jack Grand Haven -13.20 15:44.70 15:57.90
Sam Martens Holland -42.50 15:45.80 16:28.30
Jeremy Kloss Harbor Springs -50.70 15:47.10 16:37.80
Will Finch Otsego -22.70 15:47.20 16:09.90
Brendan Parr St. Clair -55.60 15:50.00 16:45.60
Morgan Mcgrew Traverse City Central -55.40 15:50.60 16:46.00
Nicholas Couyoumjian Northville -50.30 15:51.00 16:41.30
Dillan Haviland St. Johns -9.40 15:52.50 16:01.90
Chandler Lorf Flint Powers Catholic -1:21.10 15:53.50 17:14.60
James Gedris Grosse Ile -33.70 15:54.20 16:27.90
Anthony Dekraker Saline -13.50 15:54.50 16:08.00
Reid Parsons Comstock Park -4.90 15:54.70 15:59.60
Landon Melling Hanover-Horton -1:07.90 15:54.80 17:02.70
Josiah Morse Essexville Garber -52.10 15:55.60 16:47.70
Robbie Lohr Traverse City West -57.70 15:55.90 16:53.60
Evan Meyer East Lansing +10.20 16:07.10 15:56.90
Corey Gorgas Saugatuck -42.30 15:59.10 16:41.40
Andrew Hylen Spring Lake -35.50 15:59.70 16:35.20
Fraser Wilson Kent City -2.90 16:01.20 16:04.10
Tristan Williams Ann Arbor Skyline +8.60 16:10.10 16:01.50
Colin Kane Dundee -50.00 16:02.90 16:52.90
Carlee Stimpfel Cass City -41.00 16:07.10 16:48.10
Dakota Hundley Corunna -48.80 16:10.60 16:59.40
Mohammed Munassar Dearborn Edsel Ford -15.60 16:10.80 16:26.40
Jack Wallace Ann Arbor Pioneer -19.20 16:12.00 16:31.20
Carson Rabbitt Chelsea -52.40 16:12.40 17:04.80
Nick Behring Romeo -16.20 16:13.10 16:29.30
Shawn Slater Clarkston -35.40 16:13.70 16:49.10
Jesse Edelstein Ann Arbor Skyline -1:14.20 16:16.00 17:30.20
John Pieper Pontiac Notre Dame Prep -1:46.50 16:16.10 18:02.60
Drew Johnson Allen Park -55.40 16:19.40 17:14.80
Miles Peterson Corunna -33.40 16:20.90 16:54.30
Chris Davis Fowlerville -1:15.10 16:20.90 17:36.00
Sam Sharnas Holland Black River -47.20 16:22.10 17:09.30
Charlie Bruckman Corunna -1:01.00 16:22.90 17:23.90
Nolan Bailey Highland Milford +33.80 16:57.60 16:23.80
Alex Grifka Ubly -29.20 16:23.80 16:53.00
George Drallos White Lake Lakeland -7.50 16:24.10 16:31.60
Thomas Westrick Grand Rapids Forest Hills Eastern -1:07.60 16:24.20 17:31.80
Michael Fiore Saginaw Heritage -58.40 16:25.80 17:24.20
Nicholas Fraser Pontiac Notre Dame Prep -28.90 16:26.20 16:55.10
Colten Covington Grant -1:16.80 16:27.20 17:44.00
Michael Greeley Temperance-Bedford -37.10 16:27.80 17:04.90
Andrew Periard East Grand Rapids -12.40 16:27.80 16:40.20
Luke Koopman Hamilton -1:34.10 16:28.60 18:02.70
Corbin Healey Erie-Mason -1:16.30 16:28.60 17:44.90
Connor Gilbreath Chelsea -42.90 16:29.10 17:12.00
Zach Hoekstra Grandville Calvin Christian -1:04.50 16:30.90 17:35.40
Nick Sonnenberg Saginaw Heritage -1:09.90 16:30.90 17:40.80
Dallas Mora Cedar Springs -12.40 16:31.20 16:43.60
Victor Jura Grand Rapids Christian -4.20 16:31.30 16:35.50
Tanner Blaney Linden -57.00 16:31.90 17:28.90
Will Peters Lansing Catholic +0.10 16:32.20 16:32.10
Daniel Holder Hudson +30.10 17:03.20 16:33.10
David Knarian Bad Axe -1:18.80 16:33.10 17:51.90
Tylor Ross Fairview -24.70 16:33.40 16:58.10
Ryan Schroeder Lansing Catholic +14.10 16:47.60 16:33.50
Peyton Tipton Montrose -1:37.20 16:33.90 18:11.10
Aaron Hulburt Caro -2:18.50 16:34.50 18:53.00
Eric Warriner Lansing Catholic -23.90 16:35.20 16:59.10
Parker Hayes Beaverton -14.30 16:36.10 16:50.40
Derrick Laduke St. Clair -55.20 16:37.80 17:33.00
Zane Aldrich Whittemore-Prescott -1:04.00 16:38.70 17:42.70
Michael Hyatt Muskegon Orchard View -34.20 16:39.20 17:13.40
Sammy Migaldi Lansing Catholic -30.50 16:39.50 17:10.00
Devin Gibbs Leslie -48.60 16:40.00 17:28.60
Joshua Fink Holland Black River -3.00 16:40.10 16:43.10
Kaiden Hejl Bear Lake +9.30 16:49.60 16:40.30
Colin Chevalier Temperance-Bedford -40.10 16:41.20 17:21.30
Foster Thorburn Chelsea -1:33.10 16:41.50 18:14.60
Matthew Graver Grosse Ile -1:48.30 16:41.50 18:29.80
Gary Mcbride Bear Lake +0.90 16:44.80 16:43.90
Aaron Davis Williamston +1:01.40 17:45.60 16:44.20
Justin Michele Ann Arbor Skyline -8.50 16:44.30 16:52.80
Isaac Waffle Olivet -1:03.60 16:44.60 17:48.20
Davis Tebben Lansing Christian -31.00 16:45.20 17:16.20
Caleb Cotton Caro -2:04.80 16:46.70 18:51.50
Seth Windle Plymouth Christian -11.40 16:47.30 16:58.70
Nick Swanson Ubly -1:15.80 16:47.30 18:03.10
Alex Taylor Beal City -20.70 16:47.60 17:08.30
David Frederick Tekonsha -2.30 16:50.20 16:52.50
Joe Meston East Grand Rapids -1:05.50 16:50.20 17:55.70
Mitchell Chabot Fenton -1:26.70 16:51.50 18:18.20
Ben Perry Marine City Cardinal Mooney -50.10 16:51.60 17:41.70
Keegan Seifert Saugatuck +47.50 17:39.30 16:51.80
Alex Zittleman Temperance-Bedford -30.20 16:52.00 17:22.20
Olivia Theis Lansing Catholic -2:06.20 16:52.10 18:58.30
Joseph Fox St. Johns -35.70 16:52.40 17:28.10
Bradley Guenther Hanover-Horton +11.00 17:03.90 16:52.90
Luke Caddell Highland Milford -7.50 16:53.40 17:00.90
Tyge Mcqueen St. Clair -1.10 16:54.20 16:55.30
Jackson Brown Almont -1:02.20 16:56.00 17:58.20
Zhane Arthur St. Joseph -7.80 16:56.40 17:04.20
Hayden Holmes Traverse City West +40.40 17:37.20 16:56.80
Noah Scheffer Temperance-Bedford -53.80 16:58.10 17:51.90
Tj Kessman Concord +9.00 17:07.40 16:58.40
Nick Mcdonald Linden +11.20 17:09.60 16:58.40
Travis Carson Sand Creek -1:11.60 16:58.40 18:10.00
Nolan Day Fenton -28.90 16:58.60 17:27.50
Aidan Jones Holland Black River -1:16.30 16:58.80 18:15.10
Chris Jenkins Grandville Calvin Christian -1:08.20 17:00.30 18:08.50
Isaiah Romeyn Ellsworth -1:18.70 17:01.70 18:20.40
Sebastian Smaling Portage Central +39.30 17:41.10 17:01.80
Brendan Delaney Gaylord St. Mary -53.70 17:01.80 17:55.50
Cameron Thalhammer Spring Lake +25.30 17:28.30 17:03.00
Tommee Smith Sparta -6.30 17:03.50 17:09.80
Tj Moore Mt. Pleasant Sacred Heart -1:10.10 17:03.60 18:13.70
Trevor Luznak St. Johns -34.10 17:04.60 17:38.70
Stephen Barker Deckerville -57.70 17:04.70 18:02.40
Jimmy Teall Clare +18.00 17:23.20 17:05.20
Dane Nestle Shepherd -9.60 17:06.50 17:16.10
Kyle Strong Vicksburg -17.10 17:06.80 17:23.90
Liam Smith Ann Arbor Skyline +9.10 17:16.60 17:07.50
Marcus Jackson Royal Oak +21.10 17:29.70 17:08.60
Kenneth Abraham Williamston -1:16.60 17:09.70 18:26.30
Mitch Nurenberg Pewamo-Westphalia -38.20 17:09.70 17:47.90
Adithya Sanjay Troy -1:19.10 17:09.70 18:28.80
Chase Nelson Mt. Pleasant Sacred Heart -53.50 17:09.80 18:03.30
Taelor Eernisse Parma Western -1:33.20 17:10.60 18:43.80
Landon Strong Ithaca +1:53.70 19:05.50 17:11.80
Nathan Walker Erie-Mason -1:20.10 17:13.10 18:33.20
Lane Lee Bear Lake +1:59.60 19:14.00 17:14.40
Max Sydow Harbor Springs -40.20 17:14.90 17:55.10
Zach Flint Manton -38.70 17:16.00 17:54.70
Ericka Vanderlende Rockford -1:56.30 17:16.80 19:13.10
David Good Clare -15.10 17:18.20 17:33.30
Jackson Hoffman Erie-Mason -13.20 17:20.60 17:33.80
Trent Barker Pewamo-Westphalia -26.50 17:20.90 17:47.40
Kody Smith Potterville -9.10 17:24.60 17:33.70
Ryan Crutchfield Linden -3.20 17:24.80 17:28.00
Zane Wright Cass City -38.30 17:25.10 18:03.40
Eric Vandefifer Montrose -59.90 17:25.50 18:25.40
Andrew Holten Riverview Gabriel Richard -21.60 17:25.50 17:47.10
Andrew Menard St. Johns -54.50 17:26.90 18:21.40
Jeremy Northrop Chelsea +1:18.60 18:46.30 17:27.70
Nathan Wolffis Grand Haven +22.80 17:51.00 17:28.20
Keaton Crotser Mendon -32.20 17:28.50 18:00.70
Nathan Woods Evart +8.60 17:38.70 17:30.10
Sielle Kearney Traverse City Central -11.00 17:30.20 17:41.20
Jessi Larson Saline +17.20 17:48.10 17:30.90
Michael Ellis Grosse Pointe Woods University Liggett -1:26.00 17:30.90 18:56.90
Jayce Miller Clare -41.00 17:32.70 18:13.70
Jack Demara Almont -48.00 17:33.10 18:21.10
Rylee Robinson Waterford Mott -46.30 17:34.80 18:21.10
Cecilia Stalzer Mason -1:58.40 17:35.90 19:34.30
Anders Bogard Kalamazoo Christian -45.80 17:35.90 18:21.70
Ethan Mcfarlane Croswell-Lexington -22.70 17:37.90 18:00.60
Schyler Kangas Manchester +3.90 17:42.20 17:38.30
Jake Reaume Temperance-Bedford +19.20 18:02.10 17:42.90
Nick Schiavo Standish-Sterling -1:27.80 17:43.40 19:11.20
Lauren Cleary Lansing Catholic -1:38.70 17:43.70 19:22.40
Noah Schafer Mt. Pleasant Sacred Heart -28.20 17:43.90 18:12.10
Terrence Young Eau Claire -52.10 17:47.00 18:39.10
Wyatt Perry Croswell-Lexington -4.40 17:47.80 17:52.20
Tyler Sheehy Walkerville -18.30 17:47.90 18:06.20
Parker Depalma New Buffalo +0.80 17:49.90 17:49.10
Benjamin Greiner Bangor -18.30 17:49.30 18:07.60
Adelyn Ackley Hart -28.80 17:49.40 18:18.20
Kayla Windemuller Holland Christian -31.70 17:50.80 18:22.50
Karenna Duffey Macomb L'Anse Creuse North -28.90 17:51.20 18:20.10
Luke Tarr Potterville -2:16.60 17:51.20 20:07.80
Trey Gilbert Bear Lake -25.20 17:51.60 18:16.80
Rachel McCardell Birmingham Seaholm -29.70 17:51.90 18:21.60
Ryan Grigg Essexville Garber -14.40 17:53.20 18:07.60
Kyla Christopher-Moody West Bloomfield -1:09.00 17:53.50 19:02.50
Ross Schmiedeknecht Potterville -27.70 17:53.70 18:21.40
Josh Holder Hudson +25.60 18:19.80 17:54.20
Carter Finch Bangor +1.30 17:58.40 17:57.10
Alexander Olinger Croswell-Lexington -4.60 17:57.10 18:01.70
Skyler Zieske Linden +0.70 17:57.90 17:57.20
Maison Beauregard Stockbridge -43.00 17:57.60 18:40.60
Gabby Hentemann Grand Haven -23.00 17:58.70 18:21.70
Madeline Rehm White Lake Lakeland -35.20 18:01.10 18:36.30
Drake Parker Maple City-Glen Lake -20.00 18:01.20 18:21.20
Colton Seigle Whitmore Lake -25.80 18:01.70 18:27.50
Carter Rose Erie-Mason +3.40 18:07.50 18:04.10
Victoria Heiligenthal Highland Milford +2.40 18:07.30 18:04.90
Collin Carter Manton -1:15.10 18:05.00 19:20.10
Abby Inch Farmington -6.60 18:06.90 18:13.50
Spencer Stevens Sand Creek -1:00.00 18:07.70 19:07.70
Megan Worrel Troy -1:19.00 18:07.80 19:26.80
Xavier Addison Mt. Pleasant Sacred Heart +5.20 18:13.40 18:08.20
Anastasia Tucker Midland Dow -40.60 18:09.80 18:50.40
Anne Forsyth Ann Arbor Pioneer -9.70 18:10.00 18:19.70
Jacob Young Harbor Springs -45.50 18:10.10 18:55.60
Peyton Witt Portage Northern -21.80 18:10.20 18:32.00
Ben Peterson Charlevoix -48.90 18:14.10 19:03.00
Camryn Gabriel Rockford -22.10 18:14.20 18:36.30
Connor Oakley Hillsdale Academy +13.30 18:27.60 18:14.30
Justin Vincent Yale -57.30 18:15.10 19:12.40
Richard Adams Ellsworth -34.20 18:15.50 18:49.70
Katie Osika Waterford Mott -26.40 18:15.80 18:42.20
Amber Gall Shepherd -8.40 18:16.20 18:24.60
Samantha Saenz Concord -55.50 18:16.80 19:12.30
Billy Tiller Madison Heights Bishop Foley -6.70 18:18.30 18:25.00
Ashley Defrain Port Huron Northern -46.60 18:19.50 19:06.10
Griffin Reynard Sand Creek -2:02.30 18:21.40 20:23.70
Christian Downer Burton Bendle -1:29.00 18:21.70 19:50.70
Wyatt Mccoy Beal City -33.70 18:22.30 18:56.00
Oscar Diaz Beal City +7.50 18:31.10 18:23.60
Gabe Farver Cass City -25.00 18:24.20 18:49.20
Anna Fischer St. Joseph -27.10 18:25.70 18:52.80
Emily Rooney Birmingham Seaholm -28.40 18:26.20 18:54.60
Riley Gottschalk Auburn Hills Oakland Christian -1:49.50 18:26.30 20:15.80
Jillian Lange Goodrich -42.90 18:27.00 19:09.90
Elizabeth Dalrymple Clarkston -39.20 18:27.70 19:06.90
Collin Patrick Parma Western -26.40 18:28.70 18:55.10
Olivia Clymer White Lake Lakeland +1.80 18:30.60 18:28.80
Paisley Sipes South Haven -42.30 18:31.20 19:13.50
Aidan Francis Memphis -25.00 18:32.20 18:57.20
Meghan Langworthy Big Rapids -1:50.10 18:32.70 20:22.80
Katelyn Duffing Traverse City St. Francis +47.00 19:22.20 18:35.20
Doug Tishler Lutheran Westland +1:08.60 19:44.10 18:35.50
Cole Essenberg Ellsworth -12.80 18:37.40 18:50.20
Courtney Jarema Pinckney +39.40 19:21.30 18:41.90
Mary Ankenbauer Kalamazoo Hackett +14.50 18:57.20 18:42.70
Rachel Kempf Saginaw Heritage -9.80 18:42.90 18:52.70
Jacob Moza Yale -14.10 18:43.10 18:57.20
Katie Vitou DeWitt -35.10 18:43.80 19:18.90
Bailley Mcconnell Mt. Pleasant Sacred Heart -27.30 18:44.10 19:11.40
Lauren Freeland Kent City -45.40 18:44.20 19:29.60
Meghan Monaghan Troy -1:10.60 18:44.80 19:55.40
Melanie Helder Hudsonville -18.10 18:46.10 19:04.20
Katie Scoles Troy -58.70 18:46.20 19:44.90
Klaudia O'Malley McBain -5.70 18:46.50 18:52.20
Scout Nelson Mt. Pleasant Sacred Heart -32.80 18:46.60 19:19.40
Kade Meganck Montrose -2:33.00 18:46.60 21:19.60
Aaron Amaya Grosse Ile -26.60 18:47.20 19:13.80
Sydney Nesbitt Bay City Western -48.20 18:47.50 19:35.70
Erika Rapp Pinckney -38.30 18:48.00 19:26.30
Thea Johnson Saugatuck -1:13.90 18:49.00 20:02.90
Claire McNally Ann Arbor Gabriel Richard -43.70 18:49.70 19:33.40
Hannah Adler DeWitt -2.80 18:51.30 18:54.10
Alayna Ackley Hart -2:13.00 18:52.00 21:05.00
Joshua Ochab Grosse Ile -21.00 18:52.70 19:13.70
Olivia Harp Northville +15.10 19:07.90 18:52.80
Aric Hobson Kingston -15.80 18:53.60 19:09.40
Matt Carey Sand Creek -2:41.90 18:53.70 21:35.60
Madison Malon Grandville +5.50 18:59.90 18:54.40
Meg Scheske Sturgis +52.40 19:47.20 18:54.80
Allison Sherman Lake Orion -14.60 18:54.80 19:09.40
Elizabeth Kos Ann Arbor Pioneer -53.40 18:54.90 19:48.30
Noelle Adriaens Pinckney -32.90 18:55.30 19:28.20
Gracie Verhage Otsego -30.90 18:55.60 19:26.50
Maija Rettelle Midland Dow -2:07.20 18:55.70 21:02.90
Connor Henckel Mendon +26.40 19:23.40 18:57.00
Maddie Marciniak Otsego -5.30 18:57.50 19:02.80
Lainey Veenkant Clare +9.70 19:07.70 18:58.00
Analynne Klotz Cadillac -43.20 18:58.70 19:41.90
Michelle Bollini Charlevoix -41.20 19:00.30 19:41.50
Rebecca Vanderkooi Grand Rapids South Christian +15.50 19:16.00 19:00.50
Judy Rector Hanover-Horton -1:19.70 19:00.70 20:20.40
Makenzie Wank Richland Gull Lake +38.10 19:38.90 19:00.80
Paige Saiz Highland Milford +16.10 19:17.30 19:01.20
Alexandra Case Pontiac Notre Dame Prep -1:13.70 19:03.90 20:17.60
Jami Reed Grand Rapids Forest Hills Eastern -20.50 19:04.50 19:25.00
Casey Reed Blissfield -9.80 19:04.60 19:14.40
Callie Hastie Ann Arbor Huron -5.80 19:04.60 19:10.40
Kati Beckeman Birmingham Seaholm -0.30 19:04.90 19:05.20
Brooklyn Filipiak St. Louis +2:09.40 21:14.50 19:05.10
Joyana Tarsa Traverse City St. Francis +3:01.20 22:06.30 19:05.10
Caroline Hirth Chelsea -1:10.70 19:05.10 20:15.80
Madison Hammer Big Rapids +18.90 19:24.70 19:05.80
Caleigh Dunn Rockford -38.70 19:05.80 19:44.50
Kate O'connell East Grand Rapids +58.40 20:05.20 19:06.80
Sydney Kubiak Otsego -12.10 19:07.30 19:19.40
Kate Petsch Waterford Mott +40.60 19:48.00 19:07.40
Audrey Whiteside East Grand Rapids -18.20 19:09.00 19:27.20
Whitney Reid North Farmington +2.40 19:11.60 19:09.20
Caitlin Rose Grand Blanc -26.80 19:09.30 19:36.10
Regan Lobodzinski Highland Milford -32.90 19:09.70 19:42.60
Courtney Krupp New Lothrop -1:24.10 19:10.40 20:34.50
Katie Forsyth Royal Oak +48.10 19:59.90 19:11.80
Catlin Henne Springport +16.00 19:28.30 19:12.30
Lucy Karpukhno Benzie Central -1:03.20 19:14.50 20:17.70
Emily Monroe Milan +1:02.80 20:17.80 19:15.00
Grace Frost Lansing Catholic -42.70 19:15.20 19:57.90
Haili Gusa Ubly -10.20 19:15.60 19:25.80
Colby Querciagrossa Almont +26.60 19:42.30 19:15.70
Haley Hegenauer Shepherd +31.10 19:48.10 19:17.00
Maddie Dessy Rochester Adams -12.00 19:17.10 19:29.10
Evan Franzel Ubly -27.70 19:17.50 19:45.20
Olivia Updike Fowlerville +14.20 19:32.00 19:17.80
Samantha Tran Grand Rapids Forest Hills Northern +36.00 19:54.70 19:18.70
Paige Deitering Flushing +21.30 19:40.10 19:18.80
Remington Hobson Montrose -32.60 19:20.60 19:53.20
Hannah Loucks Frankenmuth -58.00 19:21.40 20:19.40
Emily Deline Carleton Airport -30.50 19:21.70 19:52.20
Erin Seibert Livonia Franklin -38.60 19:22.70 20:01.30
Jenna Bishop Grand Rapids Christian -32.30 19:23.70 19:56.00
Sierra Pallin Benzie Central -33.50 19:24.30 19:57.80
Abby Theodorsdottir East Grand Rapids +9.60 19:34.80 19:25.20
Sarah Cannon East Grand Rapids +45.90 20:11.50 19:25.60
Mallory Dawes Ann Arbor Pioneer -1:04.40 19:25.90 20:30.30
Kayce Rypma Grandville Calvin Christian -15.30 19:26.40 19:41.70
Lauren Buckner Southgate Anderson -56.90 19:27.90 20:24.80
Camerin Miller Montrose -22.80 19:28.10 19:50.90
Sydney Matusik Chelsea -3:19.10 19:28.20 22:47.30
Bethany McNair Kingsley +56.40 20:25.00 19:28.60
Morgan Johnson Alma +1:40.10 21:08.90 19:28.80
Sydney Hanson Alma +18.50 19:49.00 19:30.50
Sheila Witvliet Grandville Calvin Christian -1:39.40 19:31.40 21:10.80
Olivia Hankey Waterford Our Lady -12.20 19:31.50 19:43.70
Lily Tripp Birmingham Seaholm +53.80 20:27.90 19:34.10
Hannah Todd Remus Chippewa Hills -10.80 19:34.80 19:45.60
Marnie Frost South Haven +53.40 20:30.00 19:36.60
Abby Buitenhuis Grand Haven +9.40 19:49.80 19:40.40
Emily Ferguson Clarkston -16.10 19:40.50 19:56.60
Josie Aardema Muskegon Western Michigan Christian -2:59.10 19:41.50 22:40.60
Nora Mitteer Whitehall +2.50 19:46.40 19:43.90
Bella VanBuren Brighton +1:06.50 20:51.20 19:44.70
Jasmine Fisher Hopkins -1:15.00 19:44.80 20:59.80
Kiah Becker Grand Rapids Forest Hills Eastern -1:35.30 19:45.20 21:20.50
Grace Kendziorski Bay City Western -53.10 19:46.10 20:39.20
Renee Osborne Pittsford -57.20 19:46.50 20:43.70
Emily Gustafson Clarkston +20.50 20:09.00 19:48.50
Natalie Martinson Saugatuck -25.10 19:48.50 20:13.60
Alli Smith Temperance-Bedford -26.40 19:49.90 20:16.30
Corra Hamilton Athens -41.00 19:50.90 20:31.90
Mary Claire Smeltzer Benzie Central +26.00 20:18.00 19:52.00
Libbie Gleason Flint Powers Catholic -3.30 19:52.10 19:55.40
Sarah VanDyke Grand Rapids Christian +6.20 19:58.90 19:52.70
Gabrielle Mancini Salem -3.10 19:53.40 19:56.50
Allison Rand Jackson Lumen Christi -1:33.30 19:54.10 21:27.40
Dana Bodary Ann Arbor Gabriel Richard +1:05.80 21:00.40 19:54.60
Claire Benedict Grand Rapids Forest Hills Eastern +1:52.40 21:47.60 19:55.20
Mya Veen Plainwell -2.80 19:55.50 19:58.30
Haley Weesies Grandville Calvin Christian +38.60 20:34.20 19:55.60
Lauren Macdonald Mt. Pleasant Sacred Heart -2.90 19:56.30 19:59.20
Hannah Durant Goodrich +23.30 20:19.80 19:56.50
Janelle White Ubly -1:05.90 19:57.60 21:03.50
Alyssa Kihnke Harbor Springs +25.00 20:22.80 19:57.80
Kate Gilchrist Spring Lake -1:09.30 19:59.70 21:09.00
Natale Yabs DeWitt +1:10.80 21:11.20 20:00.40
Sarah Herrera Capac -1:02.10 20:00.50 21:02.60
Anna Vogel Ann Arbor Gabriel Richard +44.00 20:44.80 20:00.80
Megan Demeester Holland Christian -22.50 20:01.50 20:24.00
Rowan Fitzpatrick Mt. Pleasant Sacred Heart -43.20 20:01.80 20:45.00
Christine Scerbak Traverse City St. Francis -46.70 20:02.70 20:49.40
Sydney Feekings Hudson -1:03.50 20:02.70 21:06.20
Emily Jones Bloomfield Hills Cranbrook-Kingswood -15.90 20:02.80 20:18.70
Lauren Clark South Lyon East -52.80 20:03.80 20:56.60
Solana Witham Whitehall -3.70 20:04.30 20:08.00
Madeline Steffke Beal City +39.50 20:45.30 20:05.80
Rachel Hahn Essexville Garber +2.90 20:09.30 20:06.40
Carissa Kelley Three Rivers +18.10 20:24.90 20:06.80
Kelsie Bovee Grand Haven -52.40 20:07.50 20:59.90
Olivia Haring Clare -1:07.00 20:09.00 21:16.00
Whitley Blake Brown City -1:11.30 20:09.10 21:20.40
Peyton Brooks Frankfort -2:33.60 20:10.20 22:43.80
Kylee Colesa Deckerville -45.50 20:10.90 20:56.40
Rachel Wiltse Leslie +24.30 20:36.40 20:12.10
Mckenzi Bassage Reading +1:57.10 22:12.70 20:15.60
Alicia Estrella Grandville Calvin Christian -7.30 20:16.20 20:23.50
Allison Hughes Chelsea -31.60 20:16.60 20:48.20
Jack Bobo Auburn Hills Oakland Christian -2:46.50 20:18.90 23:05.40
Clare Brinkman Wixom St. Catherine -38.60 20:19.90 20:58.50
Lauren Goodrow Onsted -13.10 20:20.20 20:33.30
Christina Berna Allendale -25.90 20:22.90 20:48.80
Lauren Bramer Traverse City St. Francis +37.90 21:01.40 20:23.50
Jenna Zettle Bay City Western -52.20 20:24.30 21:16.50
Jodi Jenkins Grandville Calvin Christian +7.40 20:32.30 20:24.90
Amy Adams Cassopolis -1:07.80 20:25.30 21:33.10
Paige Carpenter Dundee +52.00 21:18.90 20:26.90
Hannah Ordiway Sanford-Meridian +38.60 21:08.20 20:29.60
Olivia Ames Lake Orion -34.80 20:29.90 21:04.70
Jaclyn Swiderski Dundee +8.40 20:40.20 20:31.80
Sarah Vanderkooi Muskegon Western Michigan Christian +1:26.20 21:59.30 20:33.10
Emma Pachay Marcellus -32.90 20:35.50 21:08.40
Amber Mango Allendale -7.60 20:36.10 20:43.70
Karyssa Gallegos Bangor -1:40.70 20:36.90 22:17.60
Sarah Weidmayer Blissfield +10.90 20:49.30 20:38.40
Jessie Rieth Three Oaks-River Valley +1:11.00 21:50.00 20:39.00
Brooklyn Nurenberg Pewamo-Westphalia -5.50 20:44.00 20:49.50
Hailee Loch Leslie +19.00 21:05.50 20:46.50
Zoe Neirink Frankenmuth +53.10 21:40.40 20:47.30
Ella Bowman White Cloud -20.20 20:48.00 21:08.20
Vivian Messerschmidt Sand Creek -57.80 20:48.00 21:45.80
Peggy Morrow Frankfort +3:31.30 24:19.40 20:48.10
Madison Vore Monroe St. Mary Catholic Central -6.10 20:48.50 20:54.60
Annelies Ondersma Grosse Pointe Woods University Liggett -1:25.00 20:48.80 22:13.80
Claire Greidanus Ann Arbor Rudolf Steiner -31.60 20:51.80 21:23.40
Ellie Stevens Whitehall +24.50 21:18.10 20:53.60
Kaitlin Schwenke Charlevoix -7.70 20:55.90 21:03.60
Bridget Rozeboom Holland Christian -1:01.10 20:57.30 21:58.40
Francesca Ansel Erie-Mason +8.20 21:08.30 21:00.10
Sienna Ruiter Plymouth Christian -22.10 21:01.20 21:23.30
Shannon Lambrecht Pontiac Notre Dame Prep -8.20 21:04.90 21:13.10
Savannah Goddeeris Brown City -1:45.80 21:07.90 22:53.70
Alyssa Phillips Hillsdale Will Carleton +1:10.60 22:21.20 21:10.60
Natalie Krueger Lansing Christian -51.00 21:11.90 22:02.90
Jenna Disser Marysville -40.10 21:13.50 21:53.60
Megan Jenkins Saugatuck -36.90 21:16.30 21:53.20
Meghan Hitt Linden +1:56.70 23:16.00 21:19.30
Izzy Poquiz Alma -39.80 21:19.60 21:59.40
Brinna Melling Hanover-Horton +8.90 21:29.50 21:20.60
Catherine Sanford Deckerville -6.80 21:22.30 21:29.10
Mary Ryan Pennington Madison Heights Bishop Foley +36.40 22:00.70 21:24.30
Samantha Horn Livonia Ladywood -2.70 21:26.30 21:29.00
Shannon Ryan Wixom St. Catherine -1.00 21:27.70 21:28.70
Emilee Macpherson Bear Lake +47.30 22:15.50 21:28.20
Addie Nagel Ellsworth +1:23.90 22:54.30 21:30.40
Yuki Babinec Bear Lake +1:11.60 22:46.40 21:34.80
Carolyn Luddy Royal Oak Shrine +12.90 21:48.40 21:35.50
Michaela Ward Fowler -0.80 21:35.60 21:36.40
Lexi Hill Hudson +39.60 22:16.60 21:37.00
Lindsey Stone Kalamazoo Hackett +1:18.80 22:57.10 21:38.30
Haley Wilkes Addison -7.30 21:42.40 21:49.70
Adrianne Brown Kimball Landmark Academy +28.10 22:11.10 21:43.00
Eleanor Dolowy Wixom St. Catherine -11.60 21:43.40 21:55.00
Lizzie Cammenga Fruitport Calvary Christian +6.80 21:51.60 21:44.80
Mikayla Bowen Hudson +24.80 22:11.60 21:46.80
Averie Hollowood Jackson Christian -1:19.20 21:46.90 23:06.10
Indyana Mccoy Reese +19.80 22:08.80 21:49.00
Maria Wierenga Byron Center Zion Christian -1:31.90 21:50.70 23:22.60
Elizabeth Belinsky Bear Lake -23.90 21:52.10 22:16.00
Halena Dickerson Sand Creek +2:03.00 23:55.20 21:52.20
Haley Foster White Cloud -1:51.60 21:53.10 23:44.70
Mya Shirey Hudson -2.90 22:01.90 22:04.80
Liza Hutchins Bloomingdale +20.50 22:23.00 22:02.50
Kaitlin Essig Bridgman -0.70 22:06.60 22:07.30
Sarah Evans Imlay City +2.00 22:11.70 22:09.70
Allison Moyer Kalamazoo Hackett +3:39.40 25:56.30 22:16.90
Alyssa Bartle Johannesburg-Lewiston +1:00.80 23:18.30 22:17.50
Evan Shell Auburn Hills Oakland Christian -2:10.20 22:24.00 24:34.20
Haley James Sand Creek -1:44.30 22:25.90 24:10.20
Emma Hembrough Ubly -57.80 22:26.60 23:24.40
Sarah Richmond Frankenmuth +10.50 22:38.40 22:27.90
Reagan Somero Frankfort +1:59.70 24:27.90 22:28.20
Sidney Wheeler Bridgman +1:30.50 24:01.70 22:31.20
Mariele Feldpausch Fowler -35.90 22:38.80 23:14.70
Savanna Tate Bridgman +7.00 22:56.40 22:49.40
Josie Ware Waterford Our Lady -33.70 23:02.00 23:35.70
Amber Wing Montrose -37.50 23:11.30 23:48.80
Kayla Pasch White Cloud +21.60 23:36.30 23:14.70
Kari Romkema Waterford Our Lady +48.40 24:15.60 23:27.20
Joy Chamberlain Plymouth Christian +1:24.30 24:58.60 23:34.30
Madelin Chau Southfield Christian -9.30 23:37.40 23:46.70
Haylah Buell East Jordan -2.30 23:48.40 23:50.70